Lid_Strength_Index
6 6 6 6 6 5 8 11 14 9 8 15 15 16 13 11 12 9 11 11 12 13 13 15 14 13 12 10 11 13 12 12 15 14 11 9 11 13 13 18 18 17 18 18
6 6 6 6 6 6 10 12 12 9 9 16 15 12 11 11 11 11 12 12 11 11 14 15 13 13 10 9 11 13 11 13 17 17 13 11 13 11 12 13 14 18 19 18
6 6 6 6 5 5 9 12 17 12 12 11 13 14 13 12 10 11 10 11 11 13 14 13 14 14 11 9 10 8 8 12 16 20 17 13 14 13 12 13 17 17 17 16
5 5 5 5 5 5 10 13 15 12 16 14 13 13 12 13 12 11 11 12 13 14 15 14 14 13 12 10 9 9 10 14 13 12 12 12 13 14 13 14 14 17 15 16
5 5 5 5 5 5 11 13 13 11 12 12 13 12 13 13 12 12 13 13 12 13 14 13 14 13 13 13 11 12 11 14 13 14 12 13 14 13 13 14 13 13 13 15
5 5 5 5 4 5 10 9 9 10 12 13 13 13 12 12 11 10 10 11 12 13 12 11 11 11 10 10 12 12 12 13 14 16 12 14 16 14 13 14 13 13 16 14
5 5 5 4 4 4 7 9 10 11 14 13 12 11 10 11 10 12 10 10 12 10 8 9 10 10 10 10 10 10 12 12 13 16 14 20 13 11 11 13 13 13 13 13
5 4 4 3 2 3 7 7 9 10 13 11 11 11 11 11 10 11 10 10 9 9 10 12 13 12 12 11 9 10 11 12 15 17 17 15 13 13 14 14 14 12 13 13
4 3 3 2 2 3 6 7 7 9 11 12 9 11 11 12 13 12 11 8 8 10 12 14 15 16 14 14 12 9 10 11 13 15 18 20 15 13 10 10 16 12 11 12
3 2 2 2 2 2 5 6 6 9 11 10 10 12 11 10 11 13 11 11 11 11 15 15 16 15 12 15 15 14 13 13 15 15 16 14 12 11 10 16 17 12 12 11
2 2 2 2 2 3 5 6 6 9 11 10 8 8 10 10 11 14 12 13 13 13 16 15 15 15 13 13 12 13 13 14 15 14 17 20 11 11 14 12 10 11 11 11
2 2 2 2 2 3 4 7 6 6 9 10 8 7 7 8 8 10 11 12 12 11 15 16 14 15 14 13 16 11 17 12 13 13 14 11 10 11 10 9 10 10 11 11
2 2 2 2 2 2 4 7 7 8 11 11 10 9 7 7 7 7 12 11 9 10 10 12 13 14 15 16 14 13 10 10 12 12 11 11 11 10 10 10 11 11 11 11
2 2 2 2 3 3 4 7 7 8 10 12 10 7 8 6 7 7 8 8 7 8 10 12 14 14 11 13 12 12 10 10 12 12 11 10 11 10 11 10 10 10 11 12
1 2 2 2 3 3 5 6 7 7 10 13 12 9 8 7 7 7 7 8 9 11 14 15 15 12 12 12 11 16 10 12 15 14 11 11 11 10 9 11 11 11 11 12
2 2 2 2 3 5 7 11 7 5 6 12 13 10 9 7 7 6 7 8 9 9 11 15 14 11 12 17 17 11 10 9 8 10 9 10 11 10 11 10 11 11 12 12
2 2 2 3 3 6 10 10 6 4 6 12 14 13 9 7 6 9 7 6 8 8 9 12 12 11 10 13 14 11 9 9 9 8 9 11 11 13 10 10 11 12 13 13
2 2 2 3 3 5 7 4 3 4 8 10 16 14 10 6 9 10 9 8 7 8 9 10 12 11 12 17 11 10 9 9 10 11 11 13 13 14 13 12 13 14 15 15
1 2 4 7 8 10 8 3 3 5 8 13 15 15 15 7 9 9 11 10 12 10 13 12 11 14 14 14 10 10 11 10 10 11 12 13 14 15 15 15 15 16 16 16
2 6 10 14 10 4 3 6 9 10 8 10 14 12 12 8 11 11 13 9 12 14 12 11 14 12 13 13 12 13 12 11 9 12 13 14 15 15 15 16 15 16 16 16
8 12 12 8 4 8 10 14 14 11 13 11 11 12 11 9 13 13 13 11 10 13 12 13 15 15 14 13 14 14 14 14 14 13 13 13 14 15 16 16 16 16 17 18
7 7 6 7 9 12 15 15 12 13 13 12 12 12 11 10 11 12 9 11 10 13 10 12 17 17 14 14 15 15 15 15 15 15 15 15 15 15 16 17 17 18 18 20
6 8 12 13 13 19 18 18 14 14 12 12 11 13 11 8 10 10 10 12 13 12 13 17 17 16 14 15 15 16 16 16 16 17 17 18 19 19 19 21 23 23 24 27
13 15 16 17 15 15 16 14 13 12 13 14 14 11 12 12 13 16 18 14 11 14 15 18 19 16 15 15 15 16 18 19 19 21 21 21 22 26 28 28 29 27 26 29
13 13 21 16 16 13 11 13 11 11 8 12 13 12 10 13 13 11 13 16 19 17 18 18 19 16 16 17 17 19 20 22 22 24 23 25 25 23 26 28 28 26 29 29
11 11 14 16 15 17 16 11 9 8 9 9 10 12 16 14 14 12 13 14 18 18 18 19 16 16 17 18 18 20 21 21 23 23 22 23 23 23 25 27 26 29 28 28
11 13 11 11 14 15 14 10 8 7 8 9 9 15 15 11 12 14 11 17 17 19 20 18 16 17 18 19 20 21 21 21 21 22 22 24 24 23 21 22 25 24 25 27